Location: Clanezzo
(45.7500°N, 9.6000°E)
Time: 14:01:00
(UTC+00:00)

SJ 16-02 - Pass Details

Date: 12 May 2021
Orbit: 606 x 616 km, 75.0° (Epoch: 18 June)

Event Time Altitude Azimuth Distance (km) Brightness Sun altitude
Exits shadow 19:55:58 14° 153° (SSE) 1,719 3.1 -11.3°
Maximum altitude 19:58:58 28° 100° (E) 1,154 2.3 -11.7°
Drops below altitude 10° 20:02:46 10° 41° (NE) 1,987 4.0 -12.2°
Sets 20:05:15 0° 30° (NNE) 2,897 5.0 -12.5°
